This demonstration page uses our WeatherBlox Daily Observations layout. Learn more.

Left ArrowRight Arrow

Hourly Observations for May 14, 2015

Temp ( °F °C ) Dew Point ( °F °C ) Humidity (%) Winds ( mph kmh ) Pressure ( in mb ) Visibility ( mi km ) Precip ( " mm )
12:51 am 00:51 Clear 69 20.6 34 1.1 27 27 E 8 13 29.73 1007 10 16 0.00 0.00
1:51 am 01:51 Clear 69 20.6 35 1.7 29 29 SE 9 15 29.72 1007 10 16 0.00 0.00
2:51 am 02:51 Clear 69 20.6 35 1.7 29 29 ESE 6 9 29.72 1007 10 16 0.00 0.00
3:51 am 03:51 Clear 66 18.9 35 1.7 32 32 ESE 9 15 29.73 1007 10 16 0.00 0.00
4:51 am 04:51 Clear 66 18.9 36 2.2 33 33 SE 6 9 29.74 1007 10 16 0.00 0.00
5:51 am 05:51 Sunny 66 18.9 38 3.3 36 36 ESE 12 19 29.76 1008 10 16 0.00 0.00
6:51 am 06:51 Sunny 69 20.6 37 2.8 31 31 E 10 17 29.78 1008 10 16 0.00 0.00
7:51 am 07:51 Sunny 75 23.9 33 0.6 22 22 S 23 37 29.77 1008 10 16 0.00 0.00
8:51 am 08:51 Sunny 74 23.3 29 -1.7 19 19 S 20 31 29.77 1008 10 16 0.00 0.00
9:51 am 09:51 Sunny 76 24.4 31 -0.6 19 19 S 22 35 29.78 1008 10 16 0.00 0.00
10:51 am 10:51 Sunny 76 24.4 31 -0.6 19 19 SSE 21 33 29.77 1008 10 16 0.00 0.00
11:51 am 11:51 Sunny 78 25.6 28 -2.2 16 16 S 18 30 29.76 1008 10 16 0.00 0.00
12:51 pm 12:51 Sunny 80 26.7 24 -4.4 13 13 SSW 12 19 29.73 1007 10 16 0.00 0.00
1:51 pm 13:51 Sunny 82 27.8 24 -4.4 12 12 ESE 7 11 29.68 1005 10 16 0.00 0.00
2:51 pm 14:51 Sunny 86 30 19 -7.2 8 8 WSW 12 19 29.62 1003 10 16 0.00 0.00
3:51 pm 15:51 Sunny 87 30.6 22 -5.6 9 9 SSW 23 37 29.60 1003 10 16 0.00 0.00
4:51 pm 16:51 Sunny 83 28.3 24 -4.4 11 11 SW 23 37 29.61 1003 10 16 0.00 0.00
5:51 pm 17:51 Sunny 80 26.7 36 2.2 20 20 SSW 16 26 29.60 1002 10 16 0.00 0.00
6:51 pm 18:51 Sunny 78 25.6 36 2.2 22 22 S 18 30 29.61 1003 10 16 0.00 0.00
7:51 pm 19:51 Clear 77 25 36 2.2 23 23 SW 21 33 29.63 1003 10 16 0.00 0.00
8:51 pm 20:51 Mostly Clear 72 22.2 36 2.2 27 27 VRB 5 7 29.67 1005 10 16 0.00 0.00
9:51 pm 21:51 Mostly Cloudy 71 21.7 28 -2.2 20 20 NNW 14 22 29.68 1005 10 16 0.00 0.00
10:12 pm 22:12 Cloudy with Thunderstorms 64 17.8 43 6.1 46 46 NNW 10 17 29.71 1006 6 10 0.03 0.76
10:33 pm 22:33 Mostly Cloudy with Nearby Thunderstorms 64 17.8 47 8.3 54 54 N 10 17 29.74 1007 10 16 0.03 0.76
10:40 pm 22:40 Mostly Cloudy 65 18.3 43 6.1 45 45 NNW 12 19 29.74 1007 10 16 0.03 0.76
10:51 pm 22:51 Mostly Cloudy 65 18.3 41 5 42 42 NNW 14 22 29.73 1007 10 16 0.03 0.76
11:51 pm 23:51 Partly Cloudy 64 17.8 40 4.4 41 41 NNW 10 17 29.73 1007 10 16 0.00 0.00

Powered by AerisWeather